Location: Chavenne
(46.6022°N, 3.2951°E)
Time: 15:42:11
(UTC+00:00)

STARLINK-1225 - Pass Details

Date: 09 April 2020
Orbit: 549 x 550 km, 53.0° (Epoch: 28 May)

Event Time Altitude Azimuth Distance (km) Brightness Sun altitude
Rises 20:37:40 0° 299° (WNW) 2,734 8.7 -20.9°
Reaches altitude 10° 20:39:55 10° 298° (WNW) 1,837 7.4 -21.2°
Maximum altitude 20:44:05 78° 213° (SSW) 571 3.5 -21.8°
Enters shadow 20:44:20 74° 171° (S) 581 3.5 -21.8°
